Tracking 29892 objects as of 21-Nov-2024
HD Live streaming from Space Station
objects crossing your sky now

STARLINK-4784

Track STARLINK-4784 now!
10-day predictions
STARLINK-4784 is classified as:


NORAD ID: 53839
Int'l Code: 2022-114X
Perigee: 545.8 km
Apogee: 547.7 km
Inclination: 53.2 °
Period: 95.4 minutes
Semi major axis: 6917 km
RCS: Unknown
Launch date: September 19, 2022
Source: United States (US)
Launch site: AIR FORCE EASTERN TEST RANGE (AFETR)
Your satellite tracking list
Your tracking list is empty




NASA's NSSDC Master Catalog

Two Line Element Set (TLE):
1 53839U 22114X   24325.84473235 -.00008268  00000-0 -50154-3 0  9994
2 53839  53.2175 261.5341 0001360  78.4122 281.7023 15.08872188120890
Source of the keplerian elements: AFSPC